Location: Unspecified
(0.0000°N, 0.0000°E)
Time: 01:20:38
(UTC+00:00)

deb Explorer IX - All Passes

Search period start: 28 January 2015 00:00
Search period end: 07 February 2015 00:00
Orbit: 555 x 1178 km, 38.8° (Epoch: 26 January)

Date Brightness Start Highest point End Pass type
(mag) Time Alt. Az. Time Alt. Az. Time Alt. Az.
28 Jan - 08:44:34 10° SSW 08:48:54 21° SE 08:52:53 10° E daylight
28 Jan - 10:31:43 10° WSW 10:37:09 57° NW 10:41:44 10° NE daylight
28 Jan - 21:30:08 10° NW 21:35:52 60° NE 21:42:43 10° ESE night (unlit)
28 Jan - 23:18:54 10° W 23:24:25 27° SW 23:30:24 10° SSE night (unlit)
29 Jan - 08:34:50 10° SSW 08:39:56 27° SE 08:44:27 10° E daylight
29 Jan - 10:22:43 10° WSW 10:28:03 43° NW 10:32:33 10° NNE daylight
29 Jan - 19:37:38 10° NNE 19:38:42 11° NE 19:40:11 10° NE visible
29 Jan - 21:20:59 10° NW 21:26:41 75° NE 21:33:33 10° SE night (unlit)
29 Jan - 23:10:25 10° W 23:15:22 22° SW 23:20:37 10° SSE night (unlit)
30 Jan - 08:25:11 10° SSW 08:30:53 35° SE 08:35:49 10° ENE daylight
30 Jan - 10:13:46 10° WSW 10:18:54 33° NW 10:23:16 10° NNE daylight
30 Jan - 19:27:06 10° NNE 19:29:36 14° NE 19:32:34 10° ENE visible
30 Jan - 21:11:53 10° NW 21:17:30 87° SW 21:24:16 10° SE night (unlit)
30 Jan - 23:02:06 10° WSW 23:06:19 17° SSW 23:10:38 10° S night (unlit)
31 Jan - 08:15:36 10° SSW 08:21:47 45° SE 08:27:01 10° ENE daylight
31 Jan - 10:04:53 10° W 10:09:43 26° NW 10:13:50 10° NNE daylight
31 Jan - 19:17:12 10° N 19:20:26 17° NE 19:24:14 10° E visible
31 Jan - 21:02:49 10° WNW 21:08:18 69° SW 21:14:53 10° SE visible
31 Jan - 22:54:07 10° WSW 22:57:17 13° SSW 23:00:18 10° S night (unlit)
01 Feb - 06:21:35 10° SSE 06:23:29 11° SSE 06:25:40 10° SE daylight
01 Feb - 08:06:05 10° SW 08:12:36 58° SE 08:18:05 10° ENE daylight
01 Feb - 09:56:06 10° W 10:00:30 21° NW 10:04:16 10° N daylight
01 Feb - 19:07:30 10° N 19:11:13 22° NE 19:15:35 10° E visible
01 Feb - 20:53:49 10° WNW 20:59:05 53° SW 21:05:23 10° SE visible
01 Feb - 22:47:31 10° SW 22:48:14 10° SSW 22:48:35 10° SSW night (unlit)
02 Feb - 06:10:47 10° S 06:14:24 15° SSE 06:18:05 10° ESE daylight
02 Feb - 07:56:35 10° SW 08:03:22 74° SE 08:09:02 10° NE daylight
02 Feb - 09:47:27 10° W 09:51:16 17° NW 09:54:32 10° N daylight
02 Feb - 18:57:54 10° NNW 19:01:58 27° NE 19:06:44 10° E visible
02 Feb - 20:44:51 10° WNW 20:49:52 41° SW 20:55:47 10° SSE visible
03 Feb - 06:00:32 10° S 06:05:16 19° SSE 06:09:52 10° ESE daylight
03 Feb - 07:47:07 10° SW 07:54:04 88° NW 07:59:51 10° NE daylight
03 Feb - 09:39:03 10° WNW 09:42:01 13° NW 09:44:29 10° NNW daylight
03 Feb - 18:48:24 10° NNW 18:52:41 35° NE 18:57:43 10° ESE visible
03 Feb - 20:35:59 10° W 20:40:40 31° SW 20:46:03 10° SSE visible
04 Feb - 05:50:28 10° SSW 05:56:03 24° SE 06:01:18 10° E visible
04 Feb - 07:37:42 10° SW 07:44:41 71° NW 07:50:34 10° NE daylight
04 Feb - 09:31:22 10° NW 09:32:45 11° NW 09:33:43 10° NNW daylight
04 Feb - 18:38:56 10° NNW 18:43:21 45° NE 18:48:33 10° ESE visible
04 Feb - 20:27:12 10° W 20:31:27 24° SW 20:36:11 10° SSE visible
05 Feb - 05:40:31 10° SSW 05:46:46 29° SE 05:52:31 10° E visible
05 Feb - 07:28:19 10° WSW 07:35:17 57° NW 07:41:10 10° NE daylight
05 Feb - 18:29:32 10° NW 18:34:00 60° NE 18:39:17 10° ESE visible
05 Feb - 20:18:34 10° W 20:22:13 19° SW 20:26:08 10° S visible
06 Feb - 05:30:39 10° SSW 05:37:24 36° SE 05:43:33 10° ENE visible
06 Feb - 07:18:59 10° WSW 07:25:49 46° NW 07:31:40 10° NNE daylight
06 Feb - 18:20:10 10° NW 18:24:38 81° NE 18:29:52 10° SE daylight
06 Feb - 20:10:13 10° WSW 20:13:00 14° SSW 20:15:46 10° S visible
